Regional Weather Roundup
Issued by NWS

Home | Current Version | Previous Version | Graphics & Text | Print | Product List | Glossary On
Versions: 1 2 3 4 5 6 7 8 9 10 11 12 13 14 15 16 17 18 19 20 21 22 23 24 25 26 27 28
000
ASUS45 KSLC 280710
RWRUT

UTAH REGIONAL WEATHER ROUNDUP
NATIONAL WEATHER SERVICE SALT LAKE CITY UT
100 AM MDT SAT MAY 28 2016

UTZ001>011-023>025-280800-

NORTHERN UTAH

CITY           SKY/WX    TMP DP  RH WIND       PRES   REMARKS
BRIGHAM CITY     N/A     51  44  79 N5        29.97S
HILL AFB       PTCLDY    52  42  69 E6        29.97F
LOGAN          CLOUDY    49  47  93 NE3       29.98S
OGDEN          PTCLDY    50  44  80 NW6       29.96S
PROVO AIRPORT  CLEAR     54  37  54 S3        29.97F
SALT LAKE CITY PTCLDY    55  45  68 W6        29.96R
VERNAL         CLEAR     49  37  63 W5        30.00S
WENDOVER       PTCLDY    57  41  54 CALM      29.98R
HEBER CITY     PTCLDY    41  36  81 SE3       30.01S
WEST JORDAN    PTCLDY    52  45  76 CALM      29.98S

$$

UTZ012>022-026-027-280800-

SOUTHERN/CENTRAL UTAH

CITY           SKY/WX    TMP DP  RH WIND       PRES   REMARKS
BLANDING       PTCLDY    47  32  54 N3        30.07S
BRYCE CANYON   CLEAR     37  29  72 W7        30.11S WCI  32
CEDAR CITY     PTCLDY    54  31  41 SE7       29.97F
DELTA          MOCLDY    54  39  58 NE5       29.96R
HANKSVILLE     CLEAR     54  36  50 CALM      29.97S
MILFORD        PTCLDY    53  31  42 W7        29.94S
MOAB/CYNLANDS  CLEAR     60  37  42 VRB6      29.94R
PRICE          MOCLDY    49  29  46 N5        30.01S
ST GEORGE      MOSUNNY   70  28  21 E9        29.86S
KANAB          MOCLDY    54  36  50 CALM      30.01R

$$

REGIONAL REPORTS     COLORADO/ARIZONA

CITY           SKY/WX    TMP DP  RH WIND       PRES   REMARKS
CRAIG, CO      CLOUDY    41  37  86 SE8       30.05F
GRAND JUNCTION CLEAR     48  43  82 E8        29.99R
RIFLE          CLEAR     44  35  70 S5        30.04R
MONTROSE       CLOUDY    47  34  60 SE8       30.06S
CORTEZ         CLEAR     45  33  63 CALM      30.02F
PAGE, AZ       CLEAR     65  32  29 CALM      29.93R
GRAND CANYON   CLEAR     37  23  56 CALM      30.08R
KINGMAN        CLEAR     69  28  21 S12       29.90R
FLAGSTAFF      CLEAR     42  28  57 SW3       30.10S

$$

REGIONAL REPORTS    NEVADA/IDAHO/WYOMING

CITY           SKY/WX    TMP DP  RH WIND       PRES   REMARKS
LAS VEGAS, NV  CLEAR     79  25  13 SW5       29.75S
ELY            MOCLDY    42  32  67 S7        30.02S
ELKO           PTCLDY    53  33  46 N7        30.00S
POCATELLO, ID  CLEAR     50  29  44 S13       29.98R
BURLEY         CLEAR     47  31  53 SW12      29.96S
EVANSTON, WY   CLOUDY    46  34  62 S5        30.05F
ROCK SPRINGS   CLEAR     44  36  73 SW12      30.02S
KEMMERER         N/A     41  34  75 N6        30.05F

$$




USA.gov is the U.S. government's official web portal to all federal, state and local government web resources and services.